Location: Allen Lane School
(37.8198°N, 89.7382°W)
Time: 14:46:26
(UTC+00:00)

Cosmos 1633 Rocket - Pass Details

Date: 08 December 2021
Orbit: 608 x 622 km, 82.5° (Epoch: 19 January)

Event Time Altitude Azimuth Distance (km) Brightness Sun altitude
Rises 23:26:04 0° 357° (N) 2,890 6.3 -9.1°
Reaches altitude 10° 23:28:20 10° 2° (N) 1,983 5.4 -9.5°
Maximum altitude 23:32:38 54° 80° (E) 748 3.1 -10.3°
Drops below altitude 10° 23:36:56 10° 159° (SSE) 1,977 5.6 -11.1°
Sets 23:39:11 0° 164° (SSE) 2,880 6.5 -11.5°
